Home > Weather > Mühlacker > Past weeks

Flag for Germany Past Weather in Mühlacker, Baden-Württemberg, Germany — Yesterday and Last 2 Weeks

Now
59 °F

Rain. Passing clouds.


Feels Like: 58 °F
Forecast: 57 / 65 °F
Wind: 8 mph from Southwest

Location: Stuttgart-Echterdingen

Current Time: May 29, 2016 at 11:20:03 PM

Latest Report: May 29, 2016 at 10:50 PM


Visibility: 4 mi

Pressure: 29.68 "Hg

Humidity: 94%

Dew Point: 57 °F

Location of MühlackerLocation

Past Weather in Mühlacker — Graph

°F

Mühlacker Temperature Yesterday

Maximum temperature yesterday: 73 °F (at 12:50 PM)
Minimum temperature yesterday: 59 °F (at 2:50 AM)
Average temperature yesterday: 65 °F

High & Low Weather Summary for the Past Weeks

 TemperatureHumidityPressure
High81 °F (May 22, 3:50 PM)100% (May 17, 4:50 AM)30.15 "Hg (May 17, 4:50 AM)
Low41 °F (May 15, 6:50 AM)34% (May 22, 1:50 PM)29.68 "Hg (May 29, 2:20 PM)
Average56 °F75%29.97 "Hg
* Reported May 14 10:20 PM — May 29 10:20 PM, Mühlacker, Weather by CustomWeather, © 2016

Note: Actual official high and low records may vary slightly from our data, if they occured in-between our weather recording intervals... More about our weather records

Advertising

Mühlacker Weather History for the Previous 24 Hours

Scroll right to see more
 ConditionsComfort  
Time TempWeatherWind HumidityBarometerVisibility
10:20 PM
Sun, May 29
59 °FThundershowers. Partly cloudy.8 mph94%29.68 "Hg4 mi
9:50 PM59 °FThunderstorms. Partly sunny.9 mph94%29.68 "Hg4 mi
9:20 PM59 °FThunderstorms. Partly sunny.5 mph94%29.71 "Hg3 mi
8:50 PM59 °FThundershowers. Partly sunny.5 mph94%29.71 "Hg3 mi
8:20 PM59 °FRain. Partly sunny.5 mph94%29.71 "Hg4 mi
7:50 PM59 °FRain. Partly sunny.3 mph94%29.71 "Hg5 mi
7:20 PM59 °FThundershowers. Broken clouds.3 mph94%29.68 "Hg4 mi
6:50 PM59 °FRain. Broken clouds.13 mph94%29.68 "Hg6 mi
6:20 PM59 °FThundershowers. Broken clouds.13 mph94%29.68 "HgN/A
5:50 PM61 °FThundershowers. Broken clouds.17 mph94%29.68 "HgN/A
5:20 PM63 °FSprinkles. Broken clouds.18 mph94%29.68 "HgN/A
4:50 PM66 °FSprinkles. Partly sunny.13 mph83%29.68 "HgN/A
4:20 PM66 °FPartly sunny.10 mph83%29.68 "HgN/A
3:50 PM68 °FBroken clouds.12 mph78%29.68 "HgN/A
3:20 PM68 °FSprinkles. Partly sunny.7 mph78%29.68 "HgN/A
2:50 PM68 °FBroken clouds.5 mph73%29.68 "HgN/A
2:20 PM68 °FSprinkles. Broken clouds.3 mph78%29.68 "HgN/A
1:50 PM70 °FBroken clouds.5 mph73%29.71 "HgN/A
1:20 PM70 °FBroken clouds.5 mph69%29.71 "HgN/A
12:50 PM68 °FPartly sunny.3 mph73%29.71 "HgN/A
12:20 PM68 °FPartly sunny.3 mph78%29.71 "HgN/A
11:50 AM68 °FPartly sunny.3 mph78%29.71 "HgN/A
11:20 AM68 °FPartly sunny.7 mph78%29.71 "HgN/A
10:50 AM68 °FPartly sunny.5 mph78%29.74 "HgN/A
10:20 AM68 °FPartly sunny.2 mph78%29.74 "HgN/A
9:50 AM66 °FPartly sunny.3 mph83%29.74 "HgN/A
9:20 AM66 °FPartly sunny.2 mph83%29.71 "HgN/A
8:50 AM63 °FBroken clouds.2 mph88%29.74 "HgN/A
8:20 AM61 °FBroken clouds.1 mph94%29.74 "HgN/A
7:50 AM59 °FLight rain. Partly sunny.2 mph100%29.74 "HgN/A
7:20 AM59 °FBroken clouds.2 mph94%29.74 "HgN/A
6:50 AM59 °FBroken clouds.2 mph94%29.74 "HgN/A
6:20 AM59 °FLight rain. Partly cloudy.2 mph100%29.74 "HgN/A
5:50 AM59 °FLight rain. Partly cloudy.9 mph100%29.74 "HgN/A
5:20 AM61 °FLight rain. Partly cloudy.2 mph94%29.77 "HgN/A
4:50 AM61 °FRain. Partly cloudy.8 mph94%29.80 "Hg6 mi
4:20 AM61 °FLight rain. Passing clouds.7 mph94%29.77 "Hg4 mi
3:50 AM61 °FRain. Partly cloudy.5 mph94%29.77 "Hg4 mi
3:20 AM59 °FLight rain. Clear.5 mph100%29.77 "Hg6 mi
2:50 AM61 °FPassing clouds.2 mph94%29.77 "Hg6 mi
2:20 AM61 °FPartly cloudy.2 mph94%29.77 "HgN/A
1:50 AM61 °FLight rain. Partly cloudy.2 mph94%29.80 "HgN/A
1:20 AM61 °FClear.6 mph94%29.80 "Hg10 mi
12:50 AM61 °FClear.5 mph94%29.80 "Hg10 mi
12:20 AM63 °FClear.2 mph88%29.80 "Hg10 mi
11:50 PM
Sat, May 28
61 °FClear.2 mph94%29.80 "Hg10 mi
11:20 PM63 °FPassing clouds.3 mph88%29.80 "HgN/A
Weather by CustomWeather, © 2016

See weather overviewHow to use our weather pages